Voltar ao catálogo

VIASAT 3-F2

AtivoComunicaçõesGEO
NORAD 66454·PAYLOAD·🇺🇸 United States

Lançado Nov 13, 2025 de Cape Canaveral Space Force Station

Loading…

TLE

AtualizadoSource: Space-Track

Época: Sep 14, 2026, 13:25 UTC

1 66454U 25261A   26257.55945750 -.00000241  00000-0  00000-0 0  9991
2 66454   0.0060 106.3723 0000988 161.0490 208.5120  1.00272495  3697

Acompanhe VIASAT 3-F2 em tempo real com AllMySat

Download on the App Store